Simultaneous Nadir Overpasses (SNOs) Predictions

Prediction of SNOs between NOAA-20 and METOP-B Satellite Orbit:

Table of predicted SNOs for the next 14.0 days since TLE Epoch: 6/7/2019
Index Date (NOAA-20) Time (NOAA-20) Lat,Lon (NOAA-20) SZA (NOAA-20 ) Date (METOP-B) Time (METOP-B) Lat,Lon (METOP-B) SZA (METOP-B ) Distance(km) Time Diff (sec)
1 06/11/2019 04:14:00 -73.58, -73.46 129.29 06/11/2019 04:15:06 -73.54, -70.37 129.49 97.35 66
2 06/11/2019 05:04:42 73.39, 94.28 50.50 06/11/2019 05:05:50 73.31, 96.44 50.30 69.46 68
3 06/11/2019 05:55:24 -73.29, -98.17 129.62 06/11/2019 05:56:34 -73.22, -96.43 129.78 56.32 70
4 06/11/2019 06:46:06 73.10, 69.56 50.17 06/11/2019 06:47:17 73.03, 70.51 50.05 31.43 71
5 06/11/2019 07:36:48 -72.99,-122.90 129.95 06/11/2019 07:38:01 -72.95,-122.35 130.03 18.50 73
6 06/11/2019 08:27:31 72.85, 44.71 49.90 06/11/2019 08:28:42 72.86, 44.80 49.89 3.22 71
7 06/11/2019 09:18:15 -72.85,-147.97 130.11 06/11/2019 09:19:25 -72.83,-147.95 130.15 2.54 70
8 06/11/2019 10:09:01 72.86, 19.32 49.90 06/11/2019 10:10:04 72.84, 19.42 49.87 3.59 63
9 06/11/2019 10:59:44 -72.80,-173.25 130.16 06/11/2019 11:00:47 -72.81,-173.33 130.17 2.67 63
10 06/11/2019 11:50:30 72.81, -5.96 49.85 06/11/2019 11:51:26 72.82, -5.96 49.85 0.86 56
11 06/11/2019 12:41:14 -72.81, 161.36 130.16 06/11/2019 12:42:08 -72.84, 161.39 130.15 2.92 54
12 06/11/2019 13:32:00 72.82, -31.35 49.85 06/11/2019 13:32:48 72.80, -31.35 49.82 2.19 48
13 06/11/2019 14:22:44 -72.82, 135.97 130.16 06/11/2019 14:23:30 -72.82, 136.01 130.17 1.20 46
14 06/11/2019 15:13:29 72.78, -56.63 49.80 06/11/2019 15:14:10 72.78, -56.73 49.80 3.32 41
15 06/11/2019 16:04:13 -72.77, 110.69 130.21 06/11/2019 16:04:52 -72.79, 110.63 130.19 3.14 39
16 06/11/2019 16:54:59 72.78, -82.02 49.80 06/11/2019 16:55:31 72.81, -82.01 49.82 3.04 32
17 06/11/2019 17:45:43 -72.78, 85.30 130.21 06/11/2019 17:46:14 -72.77, 85.24 130.22 2.04 31
18 06/11/2019 18:36:29 72.79,-107.41 49.80 06/11/2019 18:36:53 72.79,-107.39 49.80 0.56 24
19 06/11/2019 19:27:13 -72.79, 59.91 130.20 06/11/2019 19:27:35 -72.80, 59.97 130.19 2.59 22
20 06/11/2019 20:17:59 72.80,-132.79 49.81 06/11/2019 20:18:15 72.77,-132.77 49.78 3.16 16
21 06/11/2019 21:08:43 -72.79, 34.53 130.20 06/11/2019 21:08:57 -72.78, 34.58 130.22 2.20 14
22 06/11/2019 21:59:28 72.75,-158.08 49.75 06/11/2019 21:59:37 72.75,-158.16 49.75 2.59 9
23 06/11/2019 22:50:12 -72.75, 9.24 130.25 06/11/2019 22:50:19 -72.76, 9.20 130.24 2.03 7
24 06/11/2019 23:40:58 72.76, 176.53 49.76 06/11/2019 23:40:58 72.78, 176.57 49.78 2.41 0
25 06/12/2019 00:31:42 -72.76, -16.15 130.25 06/12/2019 00:31:41 -72.74, -16.18 130.26 1.91 1
26 06/12/2019 01:22:28 72.77, 151.15 49.76 06/12/2019 01:22:20 72.76, 151.18 49.75 1.58 8
27 06/12/2019 02:13:12 -72.76, -41.53 130.25 06/12/2019 02:13:02 -72.77, -41.46 130.24 2.71 10
28 06/12/2019 03:03:57 72.72, 125.86 49.71 06/12/2019 03:03:42 72.74, 125.80 49.73 2.61 15
29 06/12/2019 03:54:41 -72.77, -66.92 130.25 06/12/2019 03:54:23 -72.75, -66.84 130.26 3.29 18
30 06/12/2019 04:45:26 72.73, 100.47 49.71 06/12/2019 04:45:03 72.72, 100.42 49.71 2.24 23
31 06/12/2019 05:36:10 -72.73, -92.20 130.30 06/12/2019 05:35:45 -72.73, -92.22 130.29 0.90 25
32 06/12/2019 06:26:56 72.73, 75.09 49.71 06/12/2019 06:26:24 72.75, 75.14 49.73 2.25 32
33 06/12/2019 07:17:40 -72.73,-117.59 130.29 06/12/2019 07:17:07 -72.71,-117.61 130.31 2.38 33
34 06/12/2019 08:08:26 72.74, 49.70 49.72 06/12/2019 08:07:46 72.73, 49.76 49.71 2.72 40
35 06/12/2019 08:59:10 -72.74,-142.98 130.29 06/12/2019 08:58:28 -72.74,-142.88 130.29 3.25 42
36 06/12/2019 09:49:55 72.70, 24.41 49.66 06/12/2019 09:49:08 72.70, 24.38 49.68 1.47 47
37 06/12/2019 10:40:39 -72.69,-168.26 130.34 06/12/2019 10:39:50 -72.72,-168.27 130.31 2.87 49
38 06/12/2019 11:31:25 72.70, -0.97 49.67 06/12/2019 11:30:30 72.68, -1.00 49.66 2.45 55
39 06/12/2019 12:22:09 -72.70, 166.35 130.34 06/12/2019 12:21:12 -72.70, 166.35 130.33 0.24 57
40 06/12/2019 13:12:55 72.71, -26.36 49.67 06/12/2019 13:11:51 72.71, -26.28 49.68 2.66 64
41 06/12/2019 14:03:39 -72.71, 140.96 130.34 06/12/2019 14:02:34 -72.68, 140.97 130.35 3.20 65
42 06/12/2019 14:54:24 72.67, -51.65 49.62 06/12/2019 14:53:13 72.69, -51.66 49.66 3.05 71
43 06/12/2019 15:45:08 -72.66, 115.68 130.39 06/12/2019 15:43:56 -72.66, 115.59 130.38 2.93 72
44 06/12/2019 16:35:51 72.52, -76.72 49.46 06/12/2019 16:34:38 72.52, -77.36 49.50 21.19 73
45 06/12/2019 17:26:34 -72.47, 90.70 130.61 06/12/2019 17:25:21 -72.49, 89.90 130.53 26.86 73
46 06/12/2019 18:17:15 72.22,-101.50 49.13 06/12/2019 18:16:05 72.24,-103.24 49.26 59.10 70
47 06/12/2019 19:07:58 -72.17, 65.91 130.94 06/12/2019 19:06:49 -72.16, 63.92 130.82 67.95 69




NCC Satellite Simultaneous Nadir Overpasses (SNOs) Prediction Service
